Location: Bonny Doon Airfield
(37.0704°N, 122.1252°W)
Time: 17:33:41
(UTC-07:00)

Envisat - Pass Details

Date: 09 October 2017
Orbit: 764 x 766 km, 98.2° (Epoch: 23 October)

Event Time Altitude Azimuth Distance (km) Brightness Sun altitude
Exits shadow 22:05:06 18° 298° (WNW) 1,836 5.5 -40.8°
Drops below altitude 10° 22:06:57 10° 316° (NW) 2,305 6.1 -41.2°
Sets 22:09:46 0° 332° (NNW) 3,236 6.9 -41.6°
